Content
SEND FEEDBACK

Daily
Averages
Monthly
Summary
Philippines

LEGASPI, PHILIPPINES


Home > Asia > Philippines
Elevation: 56 feet     Latitude: 13 08N     Longitude: 123 44E

WEATHER
 
SELECT A DAY
Number of Records: 155,493;   Date Range: 2/21/97 - 9/20/14
 
SHARE

PRINT THIS DATA

[ ← Previous Day ]
WEATHER ALMANAC - JANUARY 31, 2013
[ Next Day → ]
[ °C ]   °F
Weather ElementAverageHighLow
Temperature80 °F86 °F (1:00 pm)75 °F (5:00 am)
Dewpoint74.1 °F79 °F (11:00 am)71.6 °F (1:00 am)
Humidity82.1 %94 % (7:00 am)66 % (2:00 pm)
Barometer29.95 in30.01 in (8:00 am)29.89 in (3:00 pm)
Wind Speed7.5 mph18.4 mph (11:00 am)
Weather ElementAverage
Visibility7.6 mi
Wind DirectionESE (105 °)

Weather ElementTotal
Precipitation---
Cooling Degree Days15.5 (Base 65)
Growing Degree Days30.5 (Base 50)
Averaged from 30 records on January 31, 2013
WEATHER CONDITIONS BREAKOUT
WIND DIRECTION BREAKOUT
WEATHER BY HOUR - JANUARY 31, 2013
[ °C ]   °F
Local TimeTemperatureDewpointHumidityBarometerVisibilityWind DirectionWind SpeedGust SpeedPrecipitationEventsConditions
1:00 AM75.2 °F71.6 °F89 %29.95 in6.2 miNNE (20°)9.2 mphMostly Cloudy
2:00 AM76.0 °F74.0 °F91 %29.97 in9.0 miNNE (20°)4.5 mphRainLight Rain
2:00 AM75.2 °F71.6 °F89 %29.92 in6.2 miNNE (30°)6.9 mphMostly Cloudy
3:00 AM77.0 °F73.4 °F89 %29.92 in6.2 miNNE (20°)6.9 mphMostly Cloudy
4:00 AM75.2 °F71.6 °F89 %29.92 in5.0 miNNE (20°)6.9 mphRainLight Rain
5:00 AM75.0 °F73.0 °F92 %29.97 in11.0 miNNW (340°)4.5 mphRainLight Rain
5:00 AM75.2 °F71.6 °F89 %29.95 in4.3 miNNE (20°)6.9 mphRainLight Rain
6:00 AM75.2 °F71.6 °F89 %29.95 in4.3 miNNW (340°)9.2 mphRainLight Rain
7:00 AM75.2 °F73.4 °F94 %29.98 in6.2 miNorth (360°)4.6 mphMostly Cloudy
8:00 AM78.0 °F74.0 °F86 %30.01 in16.0 miESE (120°)4.5 mphPartly Cloudy
8:00 AM77.0 °F75.2 °F94 %29.98 in6.2 miNorth (10°)6.9 mphScattered Clouds
9:00 AM80.6 °F75.2 °F84 %29.98 in6.2 miNNE (30°)6.9 mphScattered Clouds
10:00 AM82.4 °F75.2 °F79 %29.98 in6.2 miNorth (10°)13.8 mphScattered Clouds
11:00 AM85.0 °F79.0 °F79 %29.98 in19.0 miNNW (340°)4.5 mphScattered Clouds
11:00 AM84.2 °F75.2 °F74 %29.98 in6.2 miNE (40°)18.4 mphScattered Clouds
12:00 PM84.2 °F75.2 °F74 %29.95 in6.2 miNE (40°)16.1 mphScattered Clouds
1:00 PM86.0 °F75.2 °F70 %29.92 in6.2 miNNE (20°)13.8 mphPartly Cloudy
2:00 PM86.0 °F73.4 °F66 %29.92 in6.2 miNNE (20°)11.5 mphPartly Cloudy
3:00 PM86.0 °F73.4 °F66 %29.89 in6.2 miNNE (30°)8.1 mphScattered Clouds
4:00 PM84.2 °F73.4 °F70 %29.89 in6.2 miNNE (30°)10.4 mphScattered Clouds
5:00 PM82.0 °F78.0 °F83 %29.90 in16.0 miNorth2.2 mphPartly Cloudy
5:00 PM84.2 °F73.4 °F70 %29.89 in6.2 miNNE (20°)10.4 mphMostly Cloudy
6:00 PM82.4 °F73.4 °F74 %29.92 in6.2 miNorth (350°)6.9 mphScattered Clouds
7:00 PM82.4 °F73.4 °F74 %29.92 in6.2 miNNE (30°)9.2 mphScattered Clouds
8:00 PM80.0 °F76.0 °F84 %29.95 in11.0 miCalmPartly Cloudy
8:00 PM80.6 °F73.4 °F79 %29.95 in6.2 miNNE (30°)9.2 mphScattered Clouds
9:00 PM78.8 °F75.2 °F89 %29.98 in5.0 miVariable2.3 mphPartly Cloudy
10:00 PM78.8 °F73.4 °F83 %29.98 in6.2 miNW (320°)5.8 mphPartly Cloudy
11:00 PM79.0 °F76.0 °F86 %29.97 in11.0 miCalmScattered Clouds
11:00 PM78.8 °F75.2 °F89 %29.98 in6.2 miNNW (330°)4.6 mphScattered Clouds
Hourly data recorded from RPLP, located miles away from Legaspi, Philippines







STORIES FROM OUR PARTNERS